Tracking 29892 objects as of 21-Nov-2024
HD Live streaming from Space Station
objects crossing your sky now

STARLINK-5111

Track STARLINK-5111 now!
10-day predictions
STARLINK-5111 is classified as:


NORAD ID: 56146
Int'l Code: 2023-046BG
Perigee: 565.5 km
Apogee: 566.9 km
Inclination: 43.0 °
Period: 95.8 minutes
Semi major axis: 6937 km
RCS: Unknown
Launch date: March 29, 2023
Source: United States (US)
Launch site: AIR FORCE EASTERN TEST RANGE (AFETR)
Your satellite tracking list
Your tracking list is empty




NASA's NSSDC Master Catalog

Two Line Element Set (TLE):
1 56146U 23046BG  24325.95478812  .00000100  00000-0  22471-4 0  9998
2 56146  43.0015 199.7941 0001000 284.1817  75.8914 15.02536813 91490
Source of the keplerian elements: AFSPC